| time (UTC) | temp F | wind direction | speed MPH | gust MPH | rain 1hr in | rain 24hr in | rain mn in | humidity % | barometer mb |
| 20260506212007 | 55 | 262 | 7.0 | 8.0 | 0.00 | 0.00 | 0.00 | 86 | 1023.3 |
| 20260506211503 | 55 | 270 | 7.0 | 8.0 | 0.00 | 0.00 | 0.00 | 85 | 1023.4 |
| 20260506211000 | 55 | 274 | 8.0 | 9.0 | 0.00 | 0.00 | 0.00 | 85 | 1023.2 |
| 20260506210456 | 55 | 245 | 8.0 | 9.0 | 0.00 | 0.00 | 0.00 | 86 | 1023.4 |
| 20260506205954 | 55 | 282 | 7.0 | 8.0 | 0.00 | 0.00 | 0.00 | 86 | 1023.2 |
| 20260506205450 | 55 | 269 | 7.0 | 8.0 | 0.00 | 0.00 | 0.00 | 86 | 1023.3 |
| 20260506204946 | 56 | 266 | 7.0 | 9.0 | 0.00 | 0.00 | 0.00 | 85 | 1023.1 |
| 20260506204444 | 56 | 274 | 7.0 | 8.0 | 0.00 | 0.00 | 0.00 | 86 | 1023.3 |
| 20260506203941 | 56 | 258 | 4.0 | 6.0 | 0.00 | 0.00 | 0.00 | 86 | 1023.3 |
| 20260506203438 | 55 | 280 | 4.0 | 6.0 | 0.00 | 0.00 | 0.00 | 87 | 1023.2 |
| 20260506202935 | 55 | 274 | 6.0 | 8.0 | 0.00 | 0.00 | 0.00 | 87 | 1023.2 |
| 20260506202432 | 55 | 269 | 7.0 | 8.0 | 0.00 | 0.00 | 0.00 | 87 | 1023.2 |
| 20260506201928 | 55 | 258 | 7.0 | 8.0 | 0.00 | 0.00 | 0.00 | 87 | 1023.1 |
| 20260506201426 | 55 | 253 | 6.0 | 7.0 | 0.00 | 0.00 | 0.00 | 88 | 1023.0 |
| 20260506200922 | 54 | 237 | 5.0 | 6.0 | 0.00 | 0.00 | 0.00 | 88 | 1023.0 |
| 20260506200419 | 55 | 249 | 7.0 | 8.0 | 0.00 | 0.00 | 0.00 | 88 | 1023.2 |
| 20260506195915 | 55 | 239 | 5.0 | 7.0 | 0.00 | 0.00 | 0.00 | 89 | 1023.1 |
| 20260506195413 | 54 | 281 | 6.0 | 7.0 | 0.00 | 0.00 | 0.00 | 89 | 1023.1 |
| 20260506194909 | 54 | 280 | 6.0 | 7.0 | 0.00 | 0.00 | 0.00 | 88 | 1023.0 |
| 20260506194406 | 54 | 244 | 2.0 | 3.0 | 0.00 | 0.00 | 0.00 | 89 | 1022.9 |
| 20260506193903 | 53 | 242 | 4.0 | 7.0 | 0.00 | 0.00 | 0.00 | 89 | 1023.2 |
| 20260506193400 | 53 | 230 | 4.0 | 4.0 | 0.00 | 0.00 | 0.00 | 90 | 1022.9 |
| 20260506192856 | 53 | 266 | 2.0 | 2.0 | 0.00 | 0.00 | 0.00 | 90 | 1022.9 |
| 20260506192353 | 53 | 266 | 3.0 | 3.0 | 0.00 | 0.00 | 0.00 | 89 | 1023.0 |
| 20260506191850 | 53 | 253 | 5.0 | 7.0 | 0.00 | 0.00 | 0.00 | 90 | 1022.8 |
| 20260506191347 | 52 | 252 | 6.0 | 8.0 | 0.00 | 0.00 | 0.00 | 90 | 1022.9 |
| 20260506190844 | 52 | 280 | 4.0 | 6.0 | 0.00 | 0.00 | 0.00 | 89 | 1022.9 |
| 20260506190340 | 53 | 276 | 7.0 | 8.0 | 0.00 | 0.00 | 0.00 | 89 | 1022.5 |
| 20260506185837 | 53 | 282 | 5.0 | 7.0 | 0.00 | 0.00 | 0.00 | 89 | 1022.7 |
| 20260506185334 | 53 | 277 | 7.0 | 9.0 | 0.00 | 0.00 | 0.00 | 89 | 1022.7 |
| 20260506184831 | 53 | 268 | 4.0 | 6.0 | 0.00 | 0.00 | 0.00 | 89 | 1022.6 |
| 20260506184328 | 53 | 242 | 4.0 | 6.0 | 0.00 | 0.00 | 0.00 | 89 | 1022.4 |
| 20260506183826 | 53 | 249 | 2.0 | 3.0 | 0.00 | 0.00 | 0.00 | 89 | 1022.4 |
| 20260506183320 | 53 | 248 | 4.0 | 6.0 | 0.00 | 0.00 | 0.00 | 89 | 1022.4 |
| 20260506182818 | 53 | 253 | 4.0 | 6.0 | 0.00 | 0.00 | 0.00 | 88 | 1022.6 |
| 20260506182315 | 53 | 272 | 3.0 | 3.0 | 0.00 | 0.00 | 0.00 | 88 | 1022.4 |
| 20260506181813 | 53 | 262 | 4.0 | 4.0 | 0.00 | 0.00 | 0.00 | 88 | 1022.4 |
| 20260506181310 | 53 | 270 | 3.0 | 3.0 | 0.00 | 0.00 | 0.00 | 88 | 1022.5 |
| 20260506180808 | 53 | 284 | 0.0 | 0.0 | 0.00 | 0.00 | 0.00 | 88 | 1022.6 |
| 20260506180303 | 53 | 259 | 0.0 | 1.0 | 0.00 | 0.00 | 0.00 | 87 | 1022.5 |
| 20260506175800 | 53 | 260 | 5.0 | 7.0 | 0.00 | 0.00 | 0.00 | 87 | 1022.6 |
| 20260506175257 | 53 | 270 | 6.0 | 8.0 | 0.00 | 0.00 | 0.00 | 87 | 1022.6 |
| 20260506174754 | 53 | 277 | 5.0 | 7.0 | 0.00 | 0.00 | 0.00 | 86 | 1022.5 |
| 20260506174251 | 53 | 263 | 5.0 | 8.0 | 0.00 | 0.00 | 0.00 | 86 | 1022.5 |
| 20260506173749 | 53 | 239 | 5.0 | 8.0 | 0.00 | 0.00 | 0.00 | 85 | 1022.5 |
| 20260506173245 | 53 | 269 | 6.0 | 7.0 | 0.00 | 0.00 | 0.00 | 85 | 1022.3 |
| 20260506172742 | 53 | 248 | 4.0 | 6.0 | 0.00 | 0.00 | 0.00 | 85 | 1022.4 |
| 20260506172239 | 53 | 258 | 3.0 | 3.0 | 0.00 | 0.00 | 0.00 | 85 | 1022.2 |
| 20260506171737 | 53 | 252 | 5.0 | 6.0 | 0.00 | 0.00 | 0.00 | 84 | 1022.2 |
| 20260506171233 | 53 | 275 | 4.0 | 7.0 | 0.00 | 0.00 | 0.00 | 84 | 1022.1 |
| 20260506170731 | 53 | 248 | 5.0 | 7.0 | 0.00 | 0.00 | 0.00 | 83 | 1022.2 |
| 20260506170227 | 54 | 267 | 5.0 | 8.0 | 0.00 | 0.00 | 0.00 | 83 | 1022.3 |
| 20260506165726 | 54 | 281 | 4.0 | 6.0 | 0.00 | 0.00 | 0.00 | 82 | 1022.2 |
| 20260506165222 | 53 | 247 | 3.0 | 3.0 | 0.00 | 0.00 | 0.00 | 82 | 1022.1 |
| 20260506164720 | 54 | 235 | 4.0 | 4.0 | 0.00 | 0.00 | 0.00 | 82 | 1021.9 |
| 20260506164217 | 53 | 249 | 0.0 | 0.0 | 0.00 | 0.00 | 0.00 | 82 | 1021.9 |
| 20260506163713 | 53 | 238 | 0.0 | 0.0 | 0.00 | 0.00 | 0.00 | 82 | 1021.9 |
| 20260506163208 | 53 | 254 | 2.0 | 3.0 | 0.00 | 0.00 | 0.00 | 82 | 1021.8 |
| 20260506162705 | 53 | 246 | 3.0 | 4.0 | 0.00 | 0.00 | 0.00 | 82 | 1021.9 |
| 20260506162202 | 53 | 258 | 4.0 | 4.0 | 0.00 | 0.00 | 0.00 | 82 | 1022.0 |
| 20260506161659 | 53 | 283 | 0.0 | 0.0 | 0.00 | 0.00 | 0.00 | 82 | 1022.0 |
| 20260506161156 | 53 | 275 | 2.0 | 3.0 | 0.00 | 0.00 | 0.00 | 82 | 1021.9 |
| 20260506160654 | 53 | 283 | 3.0 | 4.0 | 0.00 | 0.00 | 0.00 | 82 | 1021.7 |
| 20260506160150 | 53 | 294 | 2.0 | 3.0 | 0.00 | 0.00 | 0.00 | 82 | 1022.0 |
| 20260506155649 | 53 | 283 | 3.0 | 4.0 | 0.00 | 0.00 | 0.00 | 82 | 1021.9 |
| 20260506155146 | 53 | 303 | 5.0 | 6.0 | 0.00 | 0.00 | 0.00 | 82 | 1021.7 |
| 20260506153248 | 53 | 282 | 3.0 | 4.0 | 0.00 | 0.00 | 0.00 | 82 | 1021.6 |
| 20260506152744 | 53 | 280 | 4.0 | 6.0 | 0.00 | 0.00 | 0.00 | 82 | 1021.7 |
| 20260506152242 | 53 | 269 | 4.0 | 6.0 | 0.00 | 0.00 | 0.00 | 82 | 1021.6 |
| 20260506151741 | 53 | 235 | 0.0 | 0.0 | 0.00 | 0.00 | 0.00 | 82 | 1021.7 |
| 20260506151237 | 53 | 251 | 4.0 | 4.0 | 0.00 | 0.00 | 0.00 | 82 | 1021.4 |
| 20260506150733 | 53 | 269 | 2.0 | 3.0 | 0.00 | 0.00 | 0.00 | 82 | 1021.5 |
| 20260506150231 | 53 | 255 | 0.0 | 0.0 | 0.00 | 0.00 | 0.00 | 82 | 1021.4 |
| 20260506145728 | 53 | 271 | 0.0 | 0.0 | 0.00 | 0.00 | 0.00 | 82 | 1021.3 |
| 20260506145224 | 53 | 259 | 0.0 | 0.0 | 0.00 | 0.00 | 0.00 | 82 | 1021.3 |
| 20260506144722 | 53 | 257 | 0.0 | 0.0 | 0.00 | 0.00 | 0.00 | 82 | 1021.2 |
| 20260506144219 | 53 | 248 | 0.0 | 0.0 | 0.00 | 0.00 | 0.00 | 82 | 1021.2 |
| 20260506143716 | 53 | 240 | 4.0 | 6.0 | 0.00 | 0.00 | 0.00 | 82 | 1021.2 |
| 20260506143214 | 53 | 240 | 3.0 | 6.0 | 0.00 | 0.00 | 0.00 | 82 | 1021.0 |
| 20260506142712 | 53 | 239 | 0.0 | 0.0 | 0.00 | 0.00 | 0.00 | 82 | 1021.0 |
| 20260506142210 | 53 | 248 | 3.0 | 3.0 | 0.00 | 0.00 | 0.00 | 83 | 1021.0 |
| 20260506141707 | 53 | 260 | 0.0 | 0.0 | 0.00 | 0.00 | 0.00 | 82 | 1021.3 |
| 20260506141205 | 53 | 258 | 1.0 | 2.0 | 0.00 | 0.00 | 0.00 | 82 | 1020.9 |
| 20260506140703 | 53 | 241 | 0.0 | 0.0 | 0.00 | 0.00 | 0.00 | 82 | 1021.1 |
| 20260506140159 | 53 | 263 | 2.0 | 3.0 | 0.00 | 0.00 | 0.00 | 82 | 1021.0 |
| 20260506135656 | 53 | 273 | 0.0 | 0.0 | 0.00 | 0.00 | 0.00 | 83 | 1021.0 |
| 20260506135153 | 53 | 307 | 0.0 | 0.0 | 0.00 | 0.00 | 0.00 | 83 | 1020.9 |
| 20260506134649 | 53 | 311 | 0.0 | 0.0 | 0.00 | 0.00 | 0.00 | 83 | 1020.6 |
| 20260506134145 | 53 | 267 | 0.0 | 0.0 | 0.00 | 0.00 | 0.00 | 83 | 1020.5 |
| 20260506133643 | 53 | 278 | 0.0 | 0.0 | 0.00 | 0.00 | 0.00 | 83 | 1020.5 |
| 20260506133139 | 53 | 262 | 0.0 | 0.0 | 0.00 | 0.00 | 0.00 | 83 | 1020.6 |
| 20260506132637 | 53 | 258 | 0.0 | 0.0 | 0.00 | 0.00 | 0.00 | 83 | 1020.7 |
| 20260506132133 | 53 | 266 | 0.0 | 0.0 | 0.00 | 0.00 | 0.00 | 83 | 1020.5 |
| 20260506131631 | 52 | 214 | 0.0 | 0.0 | 0.00 | 0.00 | 0.00 | 83 | 1020.6 |
| 20260506131127 | 52 | 188 | 0.0 | 0.0 | 0.00 | 0.00 | 0.00 | 84 | 1020.2 |
| 20260506105130 | 53 | 288 | 0.0 | 0.0 | 0.00 | 0.00 | 0.00 | 84 | 1020.0 |
| 20260506104628 | 53 | 288 | 0.0 | 0.0 | 0.00 | 0.00 | 0.00 | 84 | 1020.0 |
| 20260506104125 | 53 | 288 | 0.0 | 0.0 | 0.00 | 0.00 | 0.00 | 84 | 1020.0 |
| 20260506103623 | 53 | 291 | 0.0 | 0.0 | 0.00 | 0.00 | 0.00 | 84 | 1019.8 |
| 20260506103119 | 53 | 286 | 0.0 | 0.0 | 0.00 | 0.00 | 0.00 | 84 | 1019.9 |
| 20260506102618 | 53 | 294 | 0.0 | 0.0 | 0.00 | 0.00 | 0.00 | 84 | 1019.8 |
| 20260506102115 | 53 | 305 | 0.0 | 0.0 | 0.00 | 0.00 | 0.00 | 84 | 1019.8 |
| 20260506101611 | 53 | 273 | 0.0 | 0.0 | 0.00 | 0.00 | 0.00 | 84 | 1019.7 |
| 20260506095649 | 53 | 265 | 0.0 | 0.0 | 0.00 | 0.00 | 0.00 | 84 | 1019.8 |
| 20260506095145 | 53 | 265 | 0.0 | 0.0 | 0.00 | 0.00 | 0.00 | 84 | 1019.8 |
| 20260506094643 | 53 | 273 | 0.0 | 0.0 | 0.00 | 0.00 | 0.00 | 84 | 1019.9 |
| 20260506094141 | 53 | 261 | 0.0 | 0.0 | 0.00 | 0.00 | 0.00 | 84 | 1019.7 |
| 20260506093639 | 53 | 283 | 0.0 | 0.0 | 0.00 | 0.00 | 0.00 | 84 | 1020.0 |
| 20260506093136 | 53 | 321 | 0.0 | 0.0 | 0.00 | 0.00 | 0.00 | 84 | 1019.8 |
| 20260506092634 | 53 | 296 | 0.0 | 0.0 | 0.00 | 0.00 | 0.00 | 84 | 1019.8 |
| 20260506092131 | 53 | 283 | 0.0 | 0.0 | 0.00 | 0.00 | 0.00 | 84 | 1019.7 |
| 20260506091629 | 53 | 323 | 0.0 | 0.0 | 0.00 | 0.00 | 0.00 | 84 | 1019.7 |
| 20260506091126 | 53 | 295 | 0.0 | 0.0 | 0.00 | 0.00 | 0.00 | 84 | 1019.7 |
| 20260506090624 | 53 | 309 | 0.0 | 0.0 | 0.00 | 0.00 | 0.00 | 84 | 1019.7 |
| 20260506090120 | 53 | 270 | 0.0 | 0.0 | 0.00 | 0.00 | 0.00 | 84 | 1019.6 |
| 20260506085617 | 53 | 258 | 0.0 | 0.0 | 0.00 | 0.00 | 0.00 | 84 | 1019.6 |
| 20260506085113 | 53 | 248 | 0.0 | 0.0 | 0.00 | 0.00 | 0.00 | 84 | 1019.6 |
| 20260506084610 | 53 | 260 | 0.0 | 0.0 | 0.00 | 0.00 | 0.00 | 84 | 1019.5 |
| 20260506084106 | 53 | 290 | 0.0 | 0.0 | 0.00 | 0.00 | 0.00 | 84 | 1019.4 |
| 20260506083604 | 53 | 287 | 0.0 | 0.0 | 0.00 | 0.00 | 0.00 | 84 | 1019.6 |
| 20260506083101 | 53 | 305 | 0.0 | 0.0 | 0.00 | 0.00 | 0.00 | 84 | 1019.4 |
| 20260506082558 | 53 | 305 | 0.0 | 0.0 | 0.00 | 0.00 | 0.00 | 84 | 1019.4 |
| 20260506082053 | 53 | 283 | 0.0 | 0.0 | 0.00 | 0.00 | 0.00 | 84 | 1019.4 |
| 20260506081552 | 53 | 307 | 0.0 | 0.0 | 0.00 | 0.00 | 0.00 | 84 | 1019.4 |
| 20260506081049 | 53 | 301 | 1.0 | 2.0 | 0.00 | 0.00 | 0.00 | 84 | 1019.3 |
| 20260506080546 | 53 | 310 | 0.0 | 0.0 | 0.00 | 0.00 | 0.00 | 84 | 1019.3 |
| 20260506073027 | 53 | 293 | 0.0 | 0.0 | 0.00 | 0.00 | 0.00 | 84 | 1019.1 |
| 20260506072524 | 53 | 296 | 0.0 | 0.0 | 0.00 | 0.00 | 0.00 | 84 | 1019.0 |
| 20260506072022 | 53 | 299 | 0.0 | 0.0 | 0.00 | 0.00 | 0.00 | 84 | 1018.9 |
| 20260506071519 | 53 | 270 | 0.0 | 0.0 | 0.00 | 0.00 | 0.00 | 84 | 1018.9 |
| 20260506071016 | 53 | 293 | 0.0 | 0.0 | 0.00 | 0.00 | 0.00 | 84 | 1018.8 |
| 20260506070514 | 53 | 274 | 0.0 | 0.0 | 0.00 | 0.00 | 0.00 | 84 | 1018.9 |
| 20260506062451 | 54 | 284 | 3.0 | 3.0 | 0.00 | 0.00 | 0.00 | 84 | 1018.8 |
| 20260506061947 | 53 | 304 | 0.0 | 0.0 | 0.00 | 0.00 | 0.00 | 84 | 1018.8 |
| 20260506061443 | 53 | 307 | 4.0 | 6.0 | 0.00 | 0.00 | 0.00 | 84 | 1018.8 |
| 20260506060942 | 53 | 326 | 0.0 | 2.0 | 0.00 | 0.00 | 0.00 | 84 | 1018.8 |
| 20260506060440 | 54 | 293 | 4.0 | 4.0 | 0.00 | 0.00 | 0.00 | 84 | 1018.8 |
| 20260506051412 | 55 | 293 | 5.0 | 6.0 | 0.00 | 0.00 | 0.00 | 83 | 1018.8 |
| 20260506050908 | 54 | 303 | 4.0 | 6.0 | 0.00 | 0.00 | 0.00 | 83 | 1018.7 |
| 20260506050406 | 55 | 300 | 5.0 | 6.0 | 0.00 | 0.00 | 0.00 | 83 | 1018.7 |
| 20260506044856 | 55 | 275 | 0.0 | 0.0 | 0.00 | 0.00 | 0.00 | 83 | 1018.8 |
| 20260506044354 | 55 | 278 | 4.0 | 4.0 | 0.00 | 0.00 | 0.00 | 83 | 1018.5 |
| 20260506043851 | 55 | 287 | 3.0 | 4.0 | 0.00 | 0.00 | 0.00 | 83 | 1018.6 |
| 20260506043348 | 55 | 273 | 4.0 | 4.0 | 0.00 | 0.00 | 0.00 | 83 | 1018.6 |
| 20260506042846 | 55 | 280 | 3.0 | 4.0 | 0.00 | 0.00 | 0.00 | 83 | 1018.6 |
| 20260506042345 | 55 | 268 | 2.0 | 2.0 | 0.00 | 0.00 | 0.00 | 83 | 1018.5 |
| 20260506041844 | 55 | 283 | 2.0 | 3.0 | 0.00 | 0.00 | 0.00 | 83 | 1018.4 |
| 20260506041340 | 55 | 267 | 0.0 | 0.0 | 0.00 | 0.00 | 0.00 | 83 | 1018.3 |
| 20260506040837 | 55 | 280 | 0.0 | 0.0 | 0.00 | 0.00 | 0.00 | 83 | 1018.2 |
| 20260506040335 | 54 | 301 | 0.0 | 0.0 | 0.00 | 0.00 | 0.00 | 83 | 1018.3 |
| 20260506035831 | 55 | 283 | 4.0 | 6.0 | 0.00 | 0.00 | 0.00 | 82 | 1017.9 |
| 20260506035328 | 55 | 273 | 2.0 | 2.0 | 0.00 | 0.00 | 0.00 | 82 | 1018.0 |
| 20260506034825 | 55 | 266 | 4.0 | 4.0 | 0.00 | 0.00 | 0.00 | 82 | 1017.8 |
| 20260506034323 | 55 | 280 | 0.0 | 0.0 | 0.00 | 0.00 | 0.00 | 82 | 1018.0 |
| 20260506033819 | 55 | 282 | 2.0 | 3.0 | 0.00 | 0.00 | 0.00 | 83 | 1018.0 |
| 20260506033316 | 55 | 273 | 0.0 | 0.0 | 0.00 | 0.00 | 0.00 | 83 | 1017.7 |
| 20260506032813 | 55 | 294 | 0.0 | 0.0 | 0.00 | 0.00 | 0.00 | 82 | 1017.8 |
| 20260506032310 | 55 | 274 | 0.0 | 0.0 | 0.00 | 0.00 | 0.00 | 83 | 1018.0 |
| 20260506031807 | 55 | 290 | 0.0 | 0.0 | 0.00 | 0.00 | 0.00 | 83 | 1018.0 |
| 20260506031304 | 55 | 265 | 0.0 | 0.0 | 0.00 | 0.00 | 0.00 | 83 | 1018.1 |
| 20260506030802 | 55 | 295 | 0.0 | 0.0 | 0.00 | 0.00 | 0.00 | 83 | 1017.9 |
| 20260506030300 | 55 | 291 | 0.0 | 0.0 | 0.00 | 0.00 | 0.00 | 83 | 1017.8 |
| 20260506025756 | 55 | 283 | 0.0 | 0.0 | 0.00 | 0.00 | 0.00 | 83 | 1017.8 |
| 20260506025253 | 55 | 297 | 0.0 | 0.0 | 0.00 | 0.00 | 0.00 | 83 | 1017.9 |
| 20260506024750 | 55 | 272 | 0.0 | 0.0 | 0.00 | 0.00 | 0.00 | 83 | 1017.8 |
| 20260506024246 | 55 | 292 | 0.0 | 0.0 | 0.00 | 0.00 | 0.00 | 83 | 1017.6 |
| 20260506023742 | 55 | 281 | 0.0 | 0.0 | 0.00 | 0.00 | 0.00 | 83 | 1017.7 |
| 20260506023240 | 55 | 285 | 0.0 | 0.0 | 0.00 | 0.00 | 0.00 | 83 | 1017.8 |
| 20260506022736 | 55 | 293 | 0.0 | 0.0 | 0.00 | 0.00 | 0.00 | 83 | 1017.6 |
| 20260506022235 | 56 | 308 | 0.0 | 0.0 | 0.00 | 0.00 | 0.00 | 83 | 1017.8 |
| 20260506021732 | 55 | 305 | 0.0 | 0.0 | 0.00 | 0.00 | 0.00 | 83 | 1017.7 |
| 20260506021229 | 56 | 300 | 0.0 | 0.0 | 0.00 | 0.00 | 0.00 | 83 | 1017.7 |
| 20260506020725 | 56 | 293 | 0.0 | 0.0 | 0.00 | 0.00 | 0.00 | 83 | 1017.7 |
| 20260506020224 | 56 | 292 | 0.0 | 0.0 | 0.00 | 0.00 | 0.00 | 83 | 1017.8 |
| 20260506015721 | 56 | 297 | 0.0 | 0.0 | 0.00 | 0.00 | 0.00 | 83 | 1017.6 |
| 20260506015218 | 56 | 320 | 0.0 | 0.0 | 0.00 | 0.00 | 0.00 | 83 | 1017.7 |
| 20260506014715 | 56 | 302 | 3.0 | 3.0 | 0.00 | 0.00 | 0.00 | 83 | 1017.8 |
| 20260506014211 | 56 | 305 | 3.0 | 3.0 | 0.00 | 0.00 | 0.00 | 83 | 1017.7 |
| 20260506013709 | 56 | 302 | 4.0 | 6.0 | 0.00 | 0.00 | 0.00 | 82 | 1017.8 |
| 20260506013206 | 56 | 301 | 3.0 | 3.0 | 0.00 | 0.00 | 0.00 | 83 | 1017.7 |
| 20260506012702 | 57 | 302 | 3.0 | 4.0 | 0.00 | 0.00 | 0.00 | 83 | 1017.8 |
| 20260506012159 | 57 | 295 | 4.0 | 6.0 | 0.00 | 0.00 | 0.00 | 82 | 1017.6 |
| 20260506011656 | 57 | 302 | 3.0 | 4.0 | 0.00 | 0.00 | 0.00 | 82 | 1017.7 |
| 20260506011152 | 57 | 292 | 4.0 | 4.0 | 0.00 | 0.00 | 0.00 | 82 | 1017.7 |
| 20260506010651 | 57 | 287 | 5.0 | 7.0 | 0.00 | 0.00 | 0.00 | 82 | 1017.6 |
| 20260506010148 | 57 | 304 | 4.0 | 4.0 | 0.00 | 0.00 | 0.00 | 82 | 1017.8 |
| 20260506005645 | 57 | 318 | 4.0 | 6.0 | 0.00 | 0.00 | 0.00 | 82 | 1017.7 |
| 20260506005142 | 57 | 295 | 4.0 | 6.0 | 0.00 | 0.00 | 0.00 | 81 | 1017.8 |
| 20260506004638 | 57 | 290 | 5.0 | 6.0 | 0.00 | 0.00 | 0.00 | 82 | 1017.8 |
| 20260506004135 | 57 | 307 | 3.0 | 4.0 | 0.00 | 0.00 | 0.00 | 81 | 1017.6 |
| 20260506003631 | 57 | 292 | 2.0 | 2.0 | 0.00 | 0.00 | 0.00 | 81 | 1017.7 |
| 20260506003128 | 57 | 266 | 5.0 | 6.0 | 0.00 | 0.00 | 0.00 | 81 | 1017.7 |
| 20260506002624 | 58 | 284 | 4.0 | 6.0 | 0.00 | 0.00 | 0.00 | 81 | 1017.8 |
| 20260506002120 | 57 | 295 | 4.0 | 6.0 | 0.00 | 0.00 | 0.00 | 82 | 1017.7 |
| 20260506001616 | 57 | 299 | 4.0 | 4.0 | 0.00 | 0.00 | 0.00 | 81 | 1017.7 |
| 20260506001114 | 57 | 293 | 2.0 | 3.0 | 0.00 | 0.00 | 0.00 | 81 | 1017.9 |
| 20260506000611 | 57 | 301 | 4.0 | 4.0 | 0.00 | 0.00 | 0.00 | 81 | 1017.8 |
| 20260506000108 | 57 | 297 | 3.0 | 4.0 | 0.00 | 0.00 | 0.00 | 81 | 1017.8 |
| 20260505235606 | 57 | 293 | 3.0 | 3.0 | 0.00 | 0.00 | 0.00 | 82 | 1017.7 |
| 20260505235103 | 57 | 283 | 3.0 | 4.0 | 0.00 | 0.00 | 0.00 | 81 | 1018.0 |
| 20260505234600 | 57 | 292 | 4.0 | 4.0 | 0.00 | 0.00 | 0.00 | 81 | 1017.8 |
| 20260505234056 | 57 | 270 | 4.0 | 4.0 | 0.00 | 0.00 | 0.00 | 82 | 1018.1 |
| 20260505233554 | 57 | 283 | 5.0 | 7.0 | 0.00 | 0.00 | 0.00 | 81 | 1018.0 |
| 20260505233051 | 57 | 269 | 2.0 | 2.0 | 0.00 | 0.00 | 0.00 | 81 | 1018.0 |
| 20260505232549 | 57 | 276 | 0.0 | 0.0 | 0.00 | 0.00 | 0.00 | 81 | 1017.9 |
| 20260505232046 | 57 | 287 | 0.0 | 0.0 | 0.00 | 0.00 | 0.00 | 81 | 1018.1 |
| 20260505231543 | 58 | 286 | 0.0 | 0.0 | 0.00 | 0.00 | 0.00 | 80 | 1018.2 |
| 20260505231042 | 59 | 301 | 0.0 | 0.0 | 0.00 | 0.00 | 0.00 | 80 | 1018.0 |
| 20260505230539 | 58 | 288 | 0.0 | 0.0 | 0.00 | 0.00 | 0.00 | 80 | 1018.2 |
| 20260505230035 | 58 | 267 | 0.0 | 0.0 | 0.00 | 0.00 | 0.00 | 80 | 1018.1 |
| 20260505225532 | 58 | 269 | 0.0 | 0.0 | 0.00 | 0.00 | 0.00 | 80 | 1018.2 |
| 20260505225028 | 58 | 269 | 0.0 | 0.0 | 0.00 | 0.00 | 0.00 | 80 | 1018.3 |
| 20260505224525 | 58 | 267 | 0.0 | 0.0 | 0.00 | 0.00 | 0.00 | 81 | 1018.2 |
| 20260505224022 | 58 | 255 | 0.0 | 0.0 | 0.00 | 0.00 | 0.00 | 81 | 1018.3 |
| 20260505223519 | 58 | 246 | 0.0 | 0.0 | 0.00 | 0.00 | 0.00 | 80 | 1018.3 |
| 20260505223015 | 58 | 249 | 0.0 | 0.0 | 0.00 | 0.00 | 0.00 | 80 | 1018.0 |
| 20260505222512 | 58 | 285 | 0.0 | 0.0 | 0.00 | 0.00 | 0.00 | 81 | 1018.3 |
| 20260505222008 | 58 | 273 | 0.0 | 0.0 | 0.00 | 0.00 | 0.00 | 80 | 1018.3 |
| 20260505221505 | 58 | 275 | 0.0 | 0.0 | 0.00 | 0.00 | 0.00 | 81 | 1018.5 |
| 20260505221002 | 58 | 275 | 0.0 | 0.0 | 0.00 | 0.00 | 0.00 | 80 | 1018.4 |
| 20260505220459 | 58 | 261 | 0.0 | 0.0 | 0.00 | 0.00 | 0.00 | 81 | 1018.5 |
| 20260505215956 | 59 | 266 | 0.0 | 0.0 | 0.00 | 0.00 | 0.00 | 81 | 1018.4 |
| 20260505215455 | 59 | 262 | 0.0 | 0.0 | 0.00 | 0.00 | 0.00 | 81 | 1018.4 |
| 20260505214952 | 59 | 259 | 0.0 | 0.0 | 0.00 | 0.00 | 0.00 | 81 | 1018.3 |
| 20260505214450 | 59 | 283 | 0.0 | 0.0 | 0.00 | 0.00 | 0.00 | 81 | 1018.5 |
| 20260505213947 | 58 | 272 | 0.0 | 0.0 | 0.00 | 0.00 | 0.00 | 82 | 1018.4 |
| 20260505213445 | 59 | 272 | 0.0 | 0.0 | 0.00 | 0.00 | 0.00 | 82 | 1018.6 |
| 20260505212941 | 59 | 254 | 0.0 | 0.0 | 0.00 | 0.00 | 0.00 | 81 | 1018.5 |
| 20260505212438 | 58 | 240 | 0.0 | 0.0 | 0.00 | 0.00 | 0.00 | 83 | 1018.5 |